Back to catalog

STARLINK-2464

AliveCommunicationsVLEO
NORAD 48123·PAYLOAD·🇺🇸 United States

Launched Apr 7, 2021 from Cape Canaveral Space Force Station

Loading…

Next Passes (next 24 hours)

TLE

FreshSource: CelesTrak SupGP

Epoch: Sep 14, 2026, 20:19 UTC

1 48123C 21027AH  26257.84701389 -.00011938  00000+0 -38385-3 0  2572
2 48123  53.1593 352.3237 0000922  84.7127 103.3805 15.31713431    13

Track STARLINK-2464 in real time with AllMySat

Download on the App Store